Find STARLINK-37475

NORAD ID: 68839 Int'l Des: 2026-094A Owner: starlink Country: USA Constellation: starlink operational
LEOCIRCULARRETROGRADE

Live-Position

3D-Globus wird geladen...

Über STARLINK-37475

Beschreibung wird geladen...

Nächste Überflüge

Passes for default location (London). Set your location on the main map for personalized predictions.

Höhenverlauf

Loading altitude history...

Zweizeiliger Elementsatz

1 68839U 26094A 26121.83336806 -.01794452 98131-3 -33814-2 0 9994
2 68839 97.2830 135.4335 0001394 62.9295 31.0380 16.00976271 1914
Epoch: 1. Mai 2026 • Age: 5 hours

Aktueller Status

Höhe 281.0 km
Geschwindigkeit 7.74 km/s
Subsatellitenpunkt 48.70°N, 94.17°E
Typ internet

Most Searched